Regional Weather Roundup
Issued by NWS

Home | Current Version | Previous Version | Graphics & Text | Print | Product List | Glossary Off
Versions: 1 2 3 4 5 6 7 8 9 10 11 12 13 14 15 16 17 18 19 20 21 22 23 24 25 26 27 28 29 30 31 32 33 34 35 36 37 38 39 40 41 42 43 44 45 46 47 48 49

000
ASUS45 KSLC 010510
RWRUT

UTAH REGIONAL WEATHER ROUNDUP
NATIONAL WEATHER SERVICE SALT LAKE CITY UT
1000 PM MST SAT FEB 28 2015

UTZ001>011-023>025-010600-

NORTHERN UTAH

CITY           SKY/WX    TMP DP  RH WIND       PRES   REMARKS
BRIGHAM CITY   CLOUDY    37  26  63 NW5       29.91R WCI  33
HILL AFB       CLOUDY    34  26  73 E8        29.89R WCI  27
LOGAN          CLOUDY    38  21  50 N5        29.89R WCI  34
OGDEN          CLOUDY    36  27  69 S15       29.89R WCI  27
PROVO AIRPORT  CLOUDY    36  32  87 N3        29.90R
SALT LAKE CITY CLOUDY    35  33  92 SW5       29.90R WCI  31
VERNAL         CLOUDY    33  29  85 NW3       29.88R
WENDOVER       MOCLDY    37  27  65 W3        29.91R
HEBER CITY     LGT SNOW  28  28 100 CALM      29.88R
WEST JORDAN    CLOUDY    34  32  93 NW5       29.90R WCI  30

$$

UTZ012>022-026-027-010600-

SOUTHERN/CENTRAL UTAH

CITY           SKY/WX    TMP DP  RH WIND       PRES   REMARKS
BLANDING       CLOUDY    32  32 100 E5        30.00R WCI  28
BRYCE CANYON   FOG       10   8  92 S6        29.88R VSB 1/4 WCI   0
CEDAR CITY     CLOUDY    29  28  96 NE6       29.88R WCI  23
DELTA          CLOUDY    32  32 100 CALM      29.89R
HANKSVILLE     MOCLDY    32  32 100 W6        29.91R WCI  26
MILFORD        CLOUDY    35  30  82 S8        29.86R WCI  29
MOAB/CYNLANDS  MOCLDY    33  30  88 SW3       29.87R
PRICE          CLOUDY    32  29  88 E6        29.86R WCI  26
ST GEORGE      MOCLDY    46  36  66 CALM      29.88R
KANAB          CLOUDY    36  36 100 SE6       29.95R WCI  31

$$

REGIONAL REPORTS     COLORADO/ARIZONA

CITY           SKY/WX    TMP DP  RH WIND       PRES   REMARKS
CRAIG, CO      LGT SNOW  29  27  92 CALM      29.85R FOG
GRAND JUNCTION CLOUDY    33  30  88 SE6       29.87R WCI  28
RIFLE          MOCLDY    32  25  75 CALM      29.86R
MONTROSE       LGT SNOW  33  32  96 W9        29.94R FOG     WCI  25
CORTEZ         PTCLDY    28  27  96 E8        29.94R WCI  20
PAGE, AZ       CLOUDY    41  34  76 N6        29.91R
GRAND CANYON   CLOUDY    34  29  82 CALM      29.92R
KINGMAN        MOCLDY    49  31  49 S9        29.87R
FLAGSTAFF      MOCLDY    36  31  82 SW15      29.93R WCI  27

$$

REGIONAL REPORTS    NEVADA/IDAHO/WYOMING

CITY           SKY/WX    TMP DP  RH WIND       PRES   REMARKS
LAS VEGAS, NV  PTCLDY    56  26  31 S9        29.79R
ELY            CLOUDY    30  28  92 N9        29.85R WCI  22
ELKO           PTCLDY    32  28  85 VRB7      29.87R WCI  26
POCATELLO, ID  CLEAR     28  10  46 NE13G23   29.99R WCI  17
BURLEY         CLOUDY    31  13  47 E7        29.96R WCI  24
EVANSTON, WY   CLOUDY    23  20  88 E10       29.87R WCI  12
ROCK SPRINGS   LGT SNOW  13   8  81 NE18      29.94R WCI  -4

$$


USA.gov is the U.S. government's official web portal to all federal, state and local government web resources and services.